Vertical_Velocity
3 10 11 4 -2 -6 -6 -1 4 7 9 8 7 5 3 1 -0 0 3 1 0 0 3 4 4 3 2 1 -0 -0 0 1 1 1 0 0 0 1 1 2 2 2 1 0 -0 -0 -0 1 1 2 3 3 2 1 1 1 1 -0 -4 -2 4 11 16 15 14 12 10 10 9 7 4 3 2 3 5 5 5 4 4 5 6 5 1 2 4 6
1 8 9 6 2 -0 -3 1 2 2 2 3 4 3 1 -1 -2 -0 5 2 -1 -2 0 2 3 3 3 2 2 1 1 1 1 1 0 -0 -0 -0 0 1 1 2 1 0 -0 -0 -0 -0 0 1 2 2 2 1 1 1 1 1 -0 -0 4 10 17 17 14 12 12 12 10 7 4 3 3 4 7 7 7 6 6 8 7 3 0 3 5 6
-2 0 -0 4 5 4 1 4 4 2 1 0 1 1 1 -2 -3 -3 1 1 -1 -4 -3 -1 0 1 0 1 2 2 2 2 2 1 -0 -1 -1 -1 -1 0 1 1 1 1 0 -0 -0 -0 -0 0 1 1 1 1 1 1 1 1 1 1 3 8 18 18 16 13 12 12 10 7 3 3 5 8 10 8 6 5 5 8 7 4 0 3 4 4
-4 -6 -4 4 4 2 1 6 7 5 1 -1 -1 -1 -1 -1 -3 -3 -3 -2 -3 -4 -5 -3 -1 -1 -2 -1 -0 2 3 3 2 1 -0 -1 -2 -2 -2 -1 -0 1 1 1 0 0 -0 -0 -0 0 0 1 1 1 1 1 1 1 1 1 4 10 20 20 17 14 12 11 10 8 5 6 9 12 12 9 5 3 2 7 9 7 1 2 2 2
-3 -5 -1 2 -1 -4 -1 5 6 4 0 -2 -2 -1 -0 -1 -1 -2 -2 -1 -2 -4 -5 -4 -3 -3 -3 -3 -2 -0 2 2 1 0 -1 -2 -3 -3 -3 -2 -1 -0 0 1 1 1 0 -0 -0 -0 0 0 0 0 0 1 1 1 1 3 8 15 21 18 15 13 12 10 9 9 8 11 13 15 13 9 6 3 2 6 7 4 -1 0 1 1
2 2 4 1 -4 -5 1 3 2 1 -2 -3 -3 -1 0 0 -0 -1 -0 0 -1 -3 -4 -4 -4 -4 -4 -4 -3 -2 -1 -0 -0 -1 -3 -4 -4 -4 -3 -3 -2 -1 -0 0 1 1 1 0 -0 -0 -0 -0 -0 0 0 1 1 2 3 7 12 16 18 15 13 11 10 9 9 9 11 13 14 14 12 9 6 4 2 3 2 0 -1 -0 1 2
4 5 4 -0 -2 0 4 3 1 -0 -2 -2 -0 1 2 2 1 -0 -0 -0 -1 -3 -5 -5 -6 -5 -5 -4 -3 -2 -2 -2 -2 -3 -4 -5 -5 -5 -4 -4 -3 -2 -1 -0 1 1 1 1 0 -0 -0 0 0 1 0 1 2 4 7 11 14 15 15 14 12 10 9 8 9 10 11 12 11 11 10 8 6 4 2 3 2 1 -1 0 2 4
1 2 2 -0 1 4 4 4 5 4 2 3 6 9 11 9 5 2 0 -1 -2 -4 -5 -6 -7 -6 -5 -3 -2 -1 -2 -3 -3 -4 -5 -5 -5 -5 -5 -4 -3 -2 -2 -1 0 1 1 1 1 0 -0 2 4 4 2 2 2 5 11 13 14 14 13 13 11 10 7 7 9 11 11 10 8 6 6 4 3 2 2 6 6 3 0 1 4 5
-1 0 2 3 4 3 1 6 9 10 8 8 10 13 18 14 9 5 2 -2 -3 -4 -5 -6 -6 -6 -5 -3 -2 -2 -2 -2 -3 -4 -4 -5 -5 -4 -3 -3 -2 -2 -1 -1 0 1 1 1 1 1 0 3 6 7 4 2 3 6 11 12 13 12 11 9 7 6 5 8 11 12 11 7 2 -1 0 2 2 2 2 5 5 3 2 3 3 3
1 1 3 5 3 0 -2 4 9 13 12 9 10 14 17 12 8 4 -1 -3 -4 -3 -4 -6 -6 -6 -4 -4 -4 -3 -2 -2 -2 -3 -3 -4 -3 -2 -1 -0 -0 -0 -0 0 1 1 1 1 1 1 0 3 6 6 4 2 4 7 11 12 12 11 8 7 4 2 3 10 14 14 10 1 -4 -5 -0 3 4 3 2 2 1 1 2 2 2 1
5 2 0 0 -1 -3 -4 0 7 11 10 7 8 11 15 9 4 -1 -4 -4 -3 -3 -5 -6 -6 -5 -4 -5 -5 -4 -2 -1 -1 -1 -1 -1 -0 1 1 1 1 1 1 1 1 1 1 1 1 1 1 2 3 3 3 3 4 7 10 9 9 9 8 7 4 2 3 12 16 15 8 -4 -8 -7 -0 4 6 5 3 1 1 1 2 1 1 0
10 5 -1 -2 -2 -1 -1 3 7 7 4 2 3 6 9 6 2 -2 -6 -5 -4 -5 -5 -4 -4 -4 -4 -5 -5 -5 -3 -2 -0 1 1 1 1 1 2 1 1 1 1 0 0 -0 -0 -0 -0 -0 0 1 1 2 2 2 4 6 9 7 6 5 5 3 1 2 6 15 18 15 7 -3 -9 -9 -2 4 7 7 6 5 4 4 3 1 0 -0
10 7 1 2 2 4 5 6 5 3 -1 -1 1 5 9 6 2 -3 -6 -5 -6 -7 -5 -3 -3 -3 -4 -5 -6 -6 -4 -1 1 2 1 0 0 0 0 0 -0 -0 -0 -1 -2 -3 -3 -2 -2 -1 -1 0 1 1 2 2 2 3 4 4 3 3 2 3 5 7 11 17 18 14 5 -1 -5 -6 -2 3 7 8 6 5 5 4 2 0 -0 -0
7 6 4 4 6 8 8 3 0 -1 0 1 3 6 8 2 -4 -8 -6 -4 -5 -6 -4 -3 -3 -3 -3 -5 -7 -7 -4 -1 1 2 1 0 -0 0 0 -0 -0 -1 -1 -2 -3 -4 -4 -3 -3 -2 -2 -1 -0 0 1 1 2 2 2 1 1 1 1 4 7 11 16 20 17 11 3 0 -1 -1 1 4 7 8 6 4 2 1 -1 -1 -1 -0
4 6 6 6 7 6 2 -1 -2 -3 -3 -0 -1 -2 -4 -10 -12 -9 2 5 3 0 -1 -2 -2 -3 -3 -6 -7 -6 -4 -1 -0 0 0 0 1 1 2 2 2 1 1 -1 -3 -4 -3 -3 -3 -3 -3 -2 -2 -1 0 1 2 2 2 2 1 0 1 2 6 12 19 18 13 7 1 0 1 3 5 4 5 6 7 5 2 -0 -1 -1 -1 -1
3 6 7 6 5 2 -1 -2 -2 -4 -7 -7 -9 -11 -12 -15 -10 -1 11 12 9 5 1 0 -0 -2 -4 -5 -6 -5 -4 -2 -1 -1 -0 1 1 2 3 3 3 2 0 -2 -3 -3 -2 -2 -3 -3 -3 -2 -2 -1 0 1 2 3 3 2 1 0 -1 -0 5 12 17 14 10 4 -0 -0 2 5 7 5 5 5 5 4 2 0 -1 -1 -2 -1
1 4 5 4 3 1 -0 -2 -3 -4 -6 -10 -13 -14 -11 -10 -4 4 11 12 11 7 2 1 -1 -2 -3 -4 -6 -6 -3 -2 -1 -0 1 1 1 2 3 3 2 1 -1 -3 -3 -3 -2 -2 -3 -3 -2 -1 0 1 1 2 3 4 4 3 1 -0 -2 -3 2 9 13 10 7 4 1 2 4 6 7 6 5 6 5 4 3 1 -1 -1 -1 0
-0 1 3 2 2 1 -0 -1 -2 -3 -5 -8 -8 -6 -2 -3 -0 5 11 10 8 6 5 4 1 -2 -2 -6 -6 -4 -0 -1 -1 1 2 1 1 1 2 1 1 0 -1 -2 -3 -2 -2 -2 -2 -2 -1 1 2 1 0 1 3 3 3 1 0 -1 -1 -2 1 5 8 7 6 5 5 5 6 9 12 9 7 5 4 5 5 3 1 2 3 4
-2 -1 1 1 2 3 3 2 1 -1 -4 -5 -3 1 3 -0 2 7 12 10 7 6 6 5 4 2 -0 -6 -7 -4 0 -1 0 2 2 2 1 1 0 0 1 1 1 -1 -1 -1 -1 -0 1 2 4 4 3 1 -0 1 2 2 1 -0 -1 -0 -0 -2 -0 2 4 4 4 4 5 5 5 7 11 9 6 2 1 1 2 2 2 4 6 7
-4 -3 -3 -1 2 4 6 7 5 1 -2 -1 2 4 1 -0 4 10 13 9 7 7 8 8 7 5 2 -1 -4 -5 -4 -1 0 1 2 2 1 -0 -1 -0 0 1 1 -0 -1 -0 0 2 3 5 7 6 4 1 -1 -0 1 1 1 0 1 2 3 1 0 -0 -1 -0 1 2 2 2 1 1 1 1 1 -0 0 3 4 5 6 7 7 7
-4 -4 -1 0 1 2 5 8 8 6 2 4 4 3 -0 0 3 5 7 4 4 7 9 7 6 3 1 1 -1 -4 -6 -4 -3 -2 1 1 -0 -1 -1 -1 -1 0 2 1 0 0 2 4 5 5 6 5 2 -0 -1 -1 -0 0 1 2 5 7 8 7 5 4 1 -0 0 1 1 1 0 -1 -2 -1 -0 1 3 7 8 8 7 7 7 6
-3 -1 3 3 3 3 6 9 11 11 8 5 2 1 1 1 1 2 2 2 3 6 10 7 5 3 -0 1 2 2 -2 -3 -4 -4 -3 -3 -3 -2 -2 -2 -1 1 4 4 3 2 3 5 6 6 6 4 2 -1 -1 -1 0 1 2 3 5 6 9 9 9 9 8 9 7 5 4 4 5 5 4 4 4 4 4 5 5 4 3 2 2 1
-0 2 5 4 3 4 7 9 10 11 10 6 5 5 6 2 2 2 4 4 5 7 9 7 4 1 -1 3 5 5 1 1 2 2 -2 -3 -3 -3 -4 -3 -1 2 6 6 4 3 5 6 6 6 6 4 2 -0 -1 -1 -1 0 2 3 4 4 4 5 5 5 6 7 7 6 5 6 8 10 10 10 10 9 7 5 3 1 0 -0 -1 -1
1 2 2 2 1 2 3 5 6 7 8 7 7 8 8 4 4 4 4 5 6 7 6 3 0 -2 -1 6 7 6 2 5 7 7 3 2 -1 -3 -6 -5 -2 1 5 5 4 4 6 6 5 3 3 3 2 1 1 1 -0 -1 -1 1 3 3 1 1 1 1 0 2 3 3 3 4 7 9 10 10 11 11 11 10 9 7 5 5 4 3
1 0 -1 -1 -0 -0 -1 0 2 4 4 5 5 6 5 5 5 5 3 3 4 5 3 2 -1 -2 3 13 11 5 1 5 11 13 10 4 -1 -5 -7 -5 -4 -2 1 2 2 3 4 5 4 3 1 1 3 4 4 3 2 0 -0 1 1 1 -0 -1 -1 -1 -0 0 0 1 2 3 5 7 7 8 8 8 8 8 10 11 11 10 9 8
1 -0 -1 -2 -1 -1 -2 -1 -0 1 2 3 4 4 5 6 5 4 2 2 2 2 3 2 -1 -1 4 16 15 7 -2 4 12 18 19 9 0 -5 -6 -3 -2 -2 -0 -0 0 1 3 3 3 3 1 0 1 3 4 5 3 1 1 1 1 -0 0 1 1 0 0 0 1 1 2 4 6 7 7 8 8 7 5 4 4 5 6 6 5 5
1 1 0 -0 -1 -1 -1 -1 -1 0 2 3 4 4 5 4 3 0 -1 -1 -1 -1 1 -0 -2 -2 1 12 18 14 -4 3 14 24 27 15 6 -1 -3 -0 3 5 5 2 1 2 4 5 5 3 1 -1 -1 -1 -0 2 2 2 2 3 2 1 2 4 4 4 3 3 4 4 5 7 8 7 7 7 6 5 4 3 2 2 1 1 1 1
-1 0 1 0 0 -0 -1 -1 -0 1 3 4 4 4 3 1 -1 -2 -2 -1 -2 -3 -3 -5 -6 -4 -0 10 20 20 -2 1 12 24 30 21 14 7 2 3 7 12 15 10 7 7 10 14 15 13 7 1 -1 -1 -0 0 1 2 4 4 4 3 5 6 7 8 8 9 8 8 9 8 6 4 2 2 1 1 1 1 1 1 0 0 0 1
-3 -3 -2 -2 -2 -2 -2 -1 -0 1 2 3 3 2 1 -0 -1 -1 1 1 -1 -3 -4 -4 -4 -2 1 10 21 23 5 1 7 16 25 22 19 14 6 6 9 15 21 16 12 11 14 18 22 23 20 11 6 5 6 4 3 2 4 4 4 4 6 6 6 7 7 8 7 6 6 4 2 -0 -2 -2 -1 -0 1 1 2 2 2 3 4 5
-2 -3 -5 -5 -4 -4 -2 -1 -0 0 2 2 2 2 1 1 1 2 2 1 -1 -2 -0 1 2 3 4 11 21 25 16 7 7 11 14 16 18 16 9 5 7 11 15 10 6 5 9 12 16 20 22 17 14 12 12 12 10 7 5 4 3 3 4 4 4 4 3 4 3 2 2 1 0 0 0 1 2 4 5 5 5 6 6 6 7 8
-0 -2 -4 -5 -5 -4 -2 -1 -1 -0 1 2 2 2 1 1 2 2 1 1 1 2 2 2 3 4 4 7 16 25 27 13 8 7 9 10 12 12 7 2 4 7 8 -0 -8 -12 -7 0 7 11 15 16 16 14 14 15 14 11 9 6 4 3 4 4 3 3 3 3 3 3 2 3 3 4 5 6 6 6 6 7 7 7 8 8 9 9
-0 -1 -4 -5 -4 -3 -1 -0 -0 -1 1 1 1 1 2 2 1 1 1 3 5 4 1 -0 2 4 4 2 9 18 27 15 7 3 7 7 10 12 7 4 4 7 10 7 -2 -12 -20 -14 -6 2 10 14 14 13 11 11 10 8 8 5 4 3 3 3 3 3 3 4 5 5 6 6 7 7 7 7 6 6 6 6 6 6 7 7 7 7
0 -1 -3 -4 -4 -3 -2 -0 -0 -1 0 0 0 0 1 2 2 1 2 5 5 3 -2 -0 2 3 2 0 5 14 24 15 6 2 5 5 7 9 9 9 9 8 9 14 14 8 -4 -12 -12 -8 2 10 13 12 9 7 5 4 2 0 -1 -1 -1 0 1 2 2 3 4 5 6 6 7 7 6 6 6 5 5 5 4 4 3 3 2 2
1 1 -0 -2 -3 -3 -2 -1 -1 -1 -0 -0 -0 -0 1 2 2 2 2 3 2 -0 -3 1 2 2 1 1 3 10 21 19 12 7 6 4 2 1 3 6 7 8 7 8 11 13 13 7 -1 -8 -8 2 10 14 12 9 6 4 2 1 0 -0 -0 0 1 1 2 2 2 3 3 4 5 5 6 6 5 5 4 3 2 1 -0 -1 -3 -4
2 2 2 1 -1 -2 -2 -2 -2 -1 -1 -0 0 0 0 1 1 1 1 1 0 -0 0 3 3 2 2 5 4 6 16 22 21 16 9 4 1 -0 0 -0 1 4 7 5 4 4 6 10 7 -0 -8 -7 -2 5 12 12 10 8 8 8 8 8 7 6 5 5 5 5 5 5 5 4 4 4 4 4 4 4 3 2 0 -1 -2 -4 -5 -6
1 2 3 3 1 -0 -2 -3 -3 -2 -1 -0 -0 -0 -0 0 1 1 0 0 1 1 2 3 3 3 2 6 6 6 10 21 25 22 13 4 -1 -3 -3 -4 -3 -1 2 4 3 1 -1 3 6 6 4 -5 -9 -6 4 9 11 12 12 13 13 13 12 11 10 9 8 8 8 8 7 6 4 3 2 1 1 2 1 0 -0 -1 -2 -3 -5 -6
1 2 3 4 3 1 -1 -3 -4 -4 -3 -2 -2 -2 -2 -1 -1 -1 -1 -0 1 1 2 2 2 3 3 5 6 6 4 16 23 24 18 7 -2 -7 -10 -6 -5 -4 -4 -2 -0 0 0 1 3 7 11 7 1 -2 -2 3 8 12 14 13 12 11 10 9 7 6 6 5 5 5 4 3 2 1 -1 -1 -1 -0 -0 -0 -0 -0 -1 -2 -3 -4
1 2 3 4 4 2 0 -2 -3 -4 -3 -3 -4 -4 -2 -1 -1 -2 -1 -1 -0 0 1 1 1 2 4 5 7 6 1 8 16 21 22 11 0 -8 -11 -6 -4 -3 -3 -3 -3 -2 0 1 0 1 5 9 11 10 6 4 5 8 11 11 9 7 6 5 4 3 1 1 0 -0 -0 -0 -0 -1 -2 -2 -1 -1 -1 -1 -0 -0 -1 -1 -2 -2
2 2 3 4 4 3 1 -1 -2 -3 -2 -3 -3 -3 -2 -2 -2 -2 -2 -1 -1 -0 -0 -0 -0 1 2 5 7 6 3 3 7 13 17 11 2 -6 -10 -7 -5 -3 -0 1 1 1 2 1 1 0 1 4 7 10 11 9 8 8 9 9 7 5 4 3 1 0 -1 -1 -2 -2 -2 -2 -3 -3 -4 -3 -2 -1 -1 -1 -1 -1 -1 -1 -1 -2
2 3 3 4 4 4 2 0 -1 -1 -1 -1 -2 -2 -2 -2 -2 -2 -3 -2 -1 -1 -1 -1 -2 -1 -0 3 6 8 6 4 4 6 8 7 1 -6 -10 -9 -6 -3 1 2 2 2 2 2 2 3 3 3 4 4 6 8 11 12 12 7 3 1 0 -1 -2 -2 -1 -2 -2 -3 -3 -4 -5 -5 -6 -5 -5 -4 -3 -3 -3 -2 -2 -1 -1 -2
2 3 3 3 3 3 3 1 0 -0 0 0 0 -0 -1 -1 -1 -2 -2 -2 -2 -1 -0 -1 -1 -1 -1 2 6 9 9 8 8 7 6 6 1 -5 -10 -8 -5 -2 1 1 0 -1 -2 -2 -1 0 2 3 4 5 7 8 11 13 12 6 3 -0 -3 -4 -5 -4 -3 -2 -2 -2 -2 -3 -4 -5 -5 -6 -6 -6 -6 -6 -5 -3 -1 -1 -1 -1
2 3 3 3 3 3 3 2 0 -0 1 3 4 3 1 2 2 2 3 2 1 -0 -0 -0 -0 -0 0 4 8 11 12 11 10 9 8 7 4 -1 -7 -7 -6 -4 -2 -0 1 1 1 0 0 0 -1 1 3 7 10 11 11 10 8 6 4 1 -4 -5 -4 -3 -3 -3 -2 -2 -2 -2 -2 -3 -3 -4 -5 -5 -6 -6 -5 -3 -2 -1 -1 -0
2 2 2 2 2 2 2 1 -0 -1 1 4 6 5 4 4 5 6 8 10 8 4 -1 -1 -1 -1 0 7 13 18 19 16 15 14 14 12 8 3 -2 -4 -6 -6 -5 -3 -1 -0 1 3 4 4 4 4 5 6 8 9 8 7 7 7 4 -2 -8 -5 -3 -2 -3 -3 -2 -2 -2 -1 -1 -1 -2 -3 -3 -4 -4 -4 -3 -2 -1 -0 0 1
2 1 1 1 1 1 2 1 -1 -2 0 3 6 6 6 6 7 10 12 14 15 13 3 -1 -2 -1 1 8 15 20 20 18 17 17 17 16 14 11 9 8 5 3 2 2 2 2 2 4 6 7 8 8 7 8 10 10 9 7 7 6 3 -0 -3 -2 -3 -4 -5 -2 -1 -1 -1 -0 -0 -0 -1 -1 -1 -2 -3 -2 -2 -1 -1 0 1 2
1 1 0 1 1 1 2 1 -1 -2 -1 2 4 6 7 7 8 10 13 13 16 17 12 6 3 3 5 10 13 14 14 14 13 13 14 16 19 22 24 26 27 26 23 20 17 14 12 11 11 11 11 8 7 7 9 9 8 6 5 1 -1 -0 4 5 2 -2 -2 -0 -0 -0 0 0 -0 -0 -0 -0 -0 -1 -2 -2 -2 -1 -1 0 2 3
1 1 1 0 0 0 1 0 -1 -1 -1 1 3 4 5 7 8 9 11 10 10 11 13 12 10 9 8 10 11 11 11 9 7 8 10 14 18 22 28 32 34 32 29 24 21 19 19 18 16 13 9 6 5 6 6 5 3 2 1 -1 -2 -0 4 4 4 3 4 2 -0 -1 -1 -1 -1 -1 -0 0 -0 -1 -2 -2 -2 -2 -1 -0 1 2
0 0 0 -0 -1 -1 -0 0 -0 -1 -0 0 2 3 4 6 8 9 10 10 7 6 6 9 11 12 11 11 11 12 13 12 9 6 6 9 12 17 22 26 28 28 24 17 13 10 10 14 13 10 4 2 2 3 3 1 0 -0 -0 -0 -0 1 2 2 2 3 4 1 0 -0 -0 -1 -1 -0 1 -0 -1 -2 -3 -2 -2 -2 -2 -1 0 1
-1 -1 -1 -1 -1 -1 -0 -0 -0 -0 -0 -0 1 2 3 4 6 8 11 11 9 6 2 2 5 8 11 10 10 11 14 15 13 10 8 9 12 16 20 23 24 23 20 15 9 5 2 1 1 -0 -1 -0 0 0 -0 -1 -0 1 1 0 0 1 1 2 3 3 2 1 1 1 1 -0 -0 0 0 -2 -3 -3 -2 -3 -3 -2 -2 -1 0 1
-1 -1 -1 -1 -1 -1 -1 -0 -0 -1 -1 -1 -0 1 2 3 4 6 9 11 11 8 5 3 3 5 6 7 7 9 12 15 16 16 15 15 17 20 22 21 19 16 12 9 6 4 1 -2 -4 -5 -4 -1 1 1 -0 -0 1 2 2 2 1 2 2 3 3 3 2 2 2 2 1 -0 0 0 -1 -3 -3 -2 -2 -3 -3 -2 -0 1 2 2
-1 -1 -1 -1 -1 -1 -1 -1 -1 -1 -1 -1 -0 0 1 2 4 5 7 9 10 9 6 4 5 7 8 7 5 5 6 9 13 16 19 19 18 17 15 13 11 8 5 3 2 1 0 -1 -3 -3 -2 -0 2 4 3 3 4 5 5 4 4 4 4 3 2 2 3 3 3 2 1 1 1 1 -0 -1 0 1 1 0 1 3 4 4 4 4
-1 -1 -1 -1 -1 -1 -1 -1 -1 -1 -1 -1 -0 0 1 2 3 4 5 7 9 9 7 4 4 6 11 12 9 6 4 4 5 8 11 12 11 8 5 4 3 2 0 -1 -2 -3 -3 -4 -3 -3 -2 -1 2 4 7 7 7 6 6 6 6 6 5 4 3 3 4 4 3 2 2 3 3 3 2 3 4 5 4 5 6 7 7 6 5 5
Height
2946 2948 2950 2952 2954 2956 2958 2962 2964 2966 2967 2969 2972 2974 2976 2978 2982 2984 2987 2989 2991 2993 2996 3000 3002 3004 3006 3008 3009 3011 3013 3016 3018 3020 3023 3025 3027 3030 3033 3036 3038 3040 3042 3044 3047 3049 3051 3053 3056 3058 3060 3062 3065 3067 3069 3072 3074 3077 3079 3081 3083 3085 3086 3088 3089 3091 3092 3094 3095 3097 3098 3100 3102 3103 3104 3106 3107 3109 3110 3112 3114 3115 3117 3119 3121 3123
2943 2945 2948 2950 2952 2953 2956 2959 2962 2964 2965 2967 2969 2972 2974 2977 2980 2982 2985 2987 2989 2991 2993 2997 2999 3002 3004 3006 3007 3009 3011 3013 3015 3017 3020 3022 3025 3027 3030 3033 3035 3038 3040 3042 3044 3046 3048 3051 3053 3055 3057 3060 3062 3064 3067 3069 3072 3074 3077 3078 3080 3082 3084 3085 3087 3088 3090 3092 3094 3095 3096 3098 3099 3101 3102 3104 3105 3107 3109 3111 3112 3113 3115 3117 3119 3121
2941 2943 2945 2947 2949 2950 2953 2957 2959 2961 2963 2965 2967 2970 2972 2974 2977 2980 2983 2985 2987 2988 2991 2993 2996 2999 3001 3003 3005 3007 3008 3010 3012 3014 3017 3019 3022 3024 3027 3030 3032 3035 3037 3040 3042 3044 3046 3048 3050 3052 3055 3057 3059 3062 3064 3067 3069 3072 3074 3076 3078 3079 3081 3082 3084 3086 3088 3090 3092 3093 3094 3096 3097 3099 3100 3102 3103 3105 3107 3108 3110 3111 3112 3115 3117 3118
2939 2941 2942 2944 2945 2947 2950 2954 2957 2958 2960 2963 2965 2968 2970 2972 2975 2978 2980 2982 2984 2986 2988 2991 2993 2995 2997 3000 3002 3004 3006 3008 3009 3012 3014 3016 3019 3021 3024 3027 3029 3032 3035 3037 3039 3041 3043 3046 3047 3050 3052 3054 3057 3059 3062 3064 3067 3069 3071 3073 3075 3077 3078 3080 3082 3083 3085 3088 3090 3091 3092 3094 3095 3097 3098 3099 3101 3102 3104 3106 3107 3109 3110 3112 3115 3116
2938 2939 2940 2942 2943 2945 2948 2952 2954 2956 2958 2961 2963 2966 2968 2970 2972 2975 2977 2980 2982 2984 2986 2988 2990 2992 2994 2996 2999 3001 3003 3005 3007 3009 3011 3013 3016 3018 3021 3024 3027 3029 3032 3034 3037 3039 3041 3043 3045 3047 3049 3052 3054 3056 3059 3062 3064 3066 3068 3071 3073 3075 3076 3078 3079 3081 3083 3086 3088 3089 3090 3091 3093 3094 3096 3097 3099 3100 3102 3104 3106 3107 3108 3111 3112 3114
2936 2937 2938 2940 2942 2944 2947 2950 2952 2954 2956 2958 2961 2963 2965 2967 2969 2972 2975 2977 2979 2981 2983 2986 2987 2989 2991 2993 2995 2997 3000 3002 3004 3006 3008 3011 3013 3016 3018 3021 3023 3026 3029 3032 3034 3037 3039 3041 3043 3045 3047 3049 3051 3054 3056 3058 3061 3063 3066 3068 3070 3072 3074 3075 3077 3079 3081 3083 3086 3087 3088 3089 3090 3092 3093 3095 3097 3098 3100 3102 3103 3105 3107 3109 3110 3112
2933 2934 2936 2937 2939 2941 2944 2947 2950 2952 2954 2957 2958 2960 2962 2965 2967 2969 2972 2974 2976 2978 2981 2983 2985 2987 2988 2990 2992 2994 2997 2999 3001 3003 3006 3008 3011 3013 3016 3018 3021 3023 3026 3029 3031 3034 3036 3038 3040 3042 3045 3047 3049 3051 3053 3056 3058 3061 3063 3066 3068 3069 3071 3073 3075 3077 3079 3081 3083 3085 3086 3087 3088 3089 3091 3093 3095 3097 3098 3100 3101 3103 3105 3107 3108 3110
2931 2932 2934 2936 2937 2940 2942 2945 2948 2950 2952 2954 2955 2957 2960 2962 2964 2966 2968 2971 2973 2976 2978 2980 2982 2984 2986 2988 2990 2992 2994 2996 2999 3001 3003 3006 3008 3011 3013 3016 3018 3021 3023 3026 3028 3031 3033 3036 3038 3040 3042 3045 3047 3049 3051 3053 3055 3058 3061 3063 3065 3067 3068 3070 3072 3074 3077 3079 3080 3082 3082 3083 3085 3087 3089 3091 3093 3095 3097 3098 3099 3101 3103 3105 3106 3107
2928 2930 2932 2933 2935 2937 2940 2942 2944 2947 2948 2950 2952 2954 2956 2958 2960 2962 2966 2969 2972 2974 2976 2978 2980 2982 2984 2986 2987 2989 2992 2994 2996 2999 3001 3004 3006 3008 3011 3013 3016 3018 3021 3023 3026 3028 3031 3033 3035 3037 3040 3042 3044 3047 3048 3050 3052 3055 3058 3060 3062 3063 3066 3068 3070 3072 3074 3077 3078 3079 3079 3081 3083 3085 3087 3089 3091 3093 3094 3096 3097 3099 3101 3102 3104 3105
2926 2927 2929 2931 2932 2934 2937 2938 2941 2942 2944 2946 2947 2950 2952 2955 2957 2960 2963 2966 2969 2971 2973 2975 2977 2979 2982 2983 2985 2987 2989 2992 2994 2996 2999 3002 3004 3006 3009 3011 3013 3016 3018 3021 3023 3025 3028 3030 3032 3035 3037 3039 3042 3044 3046 3047 3050 3052 3055 3057 3059 3061 3063 3066 3068 3070 3072 3074 3075 3075 3076 3078 3081 3084 3086 3088 3089 3091 3092 3093 3095 3096 3098 3100 3101 3103
2923 2925 2927 2928 2930 2932 2934 2937 2938 2939 2940 2942 2944 2947 2950 2953 2956 2959 2962 2964 2967 2969 2971 2973 2975 2977 2979 2981 2983 2985 2987 2989 2992 2994 2997 2999 3002 3004 3006 3008 3011 3013 3016 3018 3020 3022 3025 3027 3030 3032 3034 3036 3038 3041 3043 3045 3047 3050 3052 3054 3057 3059 3061 3064 3066 3068 3070 3071 3072 3072 3073 3076 3078 3081 3084 3086 3087 3088 3089 3091 3092 3093 3095 3097 3099 3100
2921 2923 2924 2926 2928 2931 2933 2935 2937 2937 2938 2940 2943 2946 2949 2952 2954 2957 2960 2962 2965 2967 2969 2970 2972 2975 2977 2979 2981 2983 2985 2987 2990 2992 2994 2997 2999 3001 3003 3006 3008 3010 3013 3015 3017 3019 3022 3024 3027 3029 3031 3033 3036 3038 3040 3042 3044 3047 3049 3052 3054 3056 3059 3062 3064 3066 3068 3069 3069 3069 3071 3074 3077 3079 3082 3083 3085 3086 3087 3088 3089 3090 3092 3094 3096 3098
2919 2921 2922 2924 2926 2928 2931 2932 2935 2937 2938 2940 2942 2945 2947 2949 2952 2955 2958 2961 2963 2965 2966 2968 2970 2972 2975 2977 2978 2981 2983 2985 2987 2990 2992 2994 2996 2998 3000 3003 3005 3007 3010 3012 3014 3016 3019 3021 3024 3026 3028 3031 3033 3035 3037 3039 3041 3044 3046 3048 3051 3053 3056 3059 3062 3063 3065 3066 3066 3067 3069 3072 3075 3077 3078 3080 3082 3083 3084 3085 3087 3088 3090 3092 3094 3096
2917 2919 2921 2922 2924 2926 2928 2930 2932 2934 2936 2938 2940 2942 2944 2947 2951 2955 2957 2959 2961 2962 2964 2966 2968 2970 2972 2975 2977 2978 2981 2983 2985 2987 2990 2992 2993 2996 2998 3000 3002 3005 3007 3009 3011 3013 3016 3018 3021 3023 3025 3028 3030 3032 3034 3037 3039 3041 3043 3046 3048 3051 3054 3057 3059 3061 3062 3062 3064 3065 3067 3070 3072 3074 3075 3077 3079 3080 3082 3083 3084 3086 3088 3090 3092 3093
2916 2917 2918 2920 2921 2922 2923 2925 2927 2930 2932 2934 2937 2940 2943 2947 2951 2954 2956 2957 2958 2960 2962 2964 2966 2967 2970 2972 2974 2976 2978 2981 2983 2985 2987 2989 2991 2993 2995 2997 3000 3002 3004 3006 3008 3011 3013 3016 3018 3020 3022 3025 3027 3030 3032 3034 3036 3039 3041 3043 3046 3049 3051 3054 3056 3057 3058 3060 3062 3063 3065 3067 3069 3071 3072 3074 3076 3078 3079 3081 3082 3084 3086 3088 3089 3091
2914 2915 2916 2917 2918 2919 2920 2922 2924 2926 2929 2932 2935 2939 2943 2947 2950 2952 2953 2954 2955 2957 2959 2961 2963 2965 2968 2970 2972 2974 2977 2978 2981 2982 2984 2986 2988 2991 2993 2995 2997 2999 3001 3003 3006 3008 3011 3013 3015 3017 3020 3022 3025 3027 3029 3032 3034 3036 3039 3041 3044 3046 3048 3051 3052 3054 3056 3057 3059 3061 3063 3064 3066 3068 3070 3072 3074 3075 3077 3078 3080 3082 3084 3085 3087 3089
2913 2913 2914 2915 2917 2918 2920 2921 2923 2926 2928 2931 2934 2937 2941 2944 2947 2948 2950 2951 2953 2955 2957 2958 2961 2963 2966 2968 2970 2972 2974 2976 2978 2980 2982 2984 2986 2988 2990 2992 2994 2996 2998 3000 3003 3005 3008 3010 3012 3015 3017 3020 3022 3025 3027 3029 3032 3034 3036 3039 3041 3043 3046 3048 3050 3051 3053 3055 3057 3059 3061 3062 3064 3066 3068 3069 3071 3073 3075 3076 3078 3079 3081 3083 3085 3087
2911 2912 2912 2914 2915 2917 2919 2921 2923 2925 2927 2930 2932 2935 2938 2942 2944 2946 2948 2949 2951 2952 2954 2956 2959 2962 2964 2966 2968 2970 2972 2974 2976 2978 2980 2982 2983 2985 2987 2989 2991 2993 2996 2998 3000 3003 3005 3007 3010 3012 3015 3018 3020 3022 3024 3027 3029 3032 3034 3036 3038 3041 3043 3045 3047 3049 3051 3053 3055 3057 3058 3060 3062 3064 3066 3067 3069 3071 3073 3074 3076 3077 3079 3081 3082 3085
2909 2910 2912 2912 2914 2916 2918 2920 2922 2924 2926 2928 2931 2934 2937 2941 2943 2944 2945 2947 2949 2950 2952 2955 2958 2961 2963 2964 2966 2968 2971 2973 2974 2976 2978 2979 2981 2983 2985 2987 2989 2991 2993 2996 2998 3000 3002 3005 3007 3010 3013 3015 3017 3019 3022 3024 3027 3029 3031 3033 3036 3038 3040 3042 3044 3046 3048 3050 3052 3054 3056 3057 3060 3062 3064 3066 3067 3069 3071 3072 3074 3075 3077 3079 3081 3083
2907 2909 2910 2911 2912 2914 2917 2919 2921 2922 2924 2926 2929 2932 2936 2938 2940 2941 2942 2944 2947 2948 2951 2954 2957 2959 2962 2964 2965 2967 2969 2971 2972 2974 2976 2977 2979 2980 2982 2984 2986 2989 2991 2993 2995 2998 3000 3002 3005 3008 3011 3013 3015 3017 3019 3021 3024 3026 3028 3031 3033 3036 3038 3040 3042 3043 3045 3047 3049 3051 3053 3055 3057 3060 3062 3064 3066 3067 3069 3070 3072 3074 3076 3078 3080 3082
2906 2907 2908 2909 2911 2912 2914 2916 2918 2921 2923 2925 2927 2931 2933 2936 2937 2938 2940 2942 2945 2948 2951 2953 2956 2958 2961 2963 2965 2966 2967 2969 2970 2972 2973 2975 2977 2978 2980 2982 2984 2986 2989 2991 2993 2996 2998 3000 3003 3006 3008 3010 3012 3014 3016 3018 3021 3023 3026 3028 3031 3033 3036 3037 3040 3042 3043 3045 3047 3049 3051 3053 3055 3057 3059 3061 3063 3065 3067 3068 3070 3072 3074 3076 3078 3079
2904 2905 2906 2908 2909 2910 2911 2913 2916 2918 2921 2923 2926 2928 2931 2933 2935 2937 2938 2941 2944 2947 2950 2952 2955 2957 2959 2962 2964 2965 2967 2968 2969 2970 2971 2973 2975 2976 2977 2979 2982 2984 2987 2989 2991 2994 2996 2998 3001 3003 3006 3007 3009 3012 3014 3016 3018 3021 3023 3026 3028 3031 3033 3036 3038 3040 3042 3044 3046 3047 3049 3051 3053 3055 3057 3059 3061 3063 3065 3067 3068 3070 3072 3073 3074 3076
2902 2903 2905 2906 2907 2908 2909 2911 2913 2916 2919 2921 2923 2925 2928 2931 2933 2935 2937 2939 2942 2945 2948 2951 2953 2956 2959 2961 2963 2964 2966 2968 2968 2969 2970 2971 2972 2974 2975 2977 2980 2982 2985 2987 2989 2992 2994 2997 2999 3002 3004 3006 3007 3009 3012 3014 3016 3018 3021 3023 3026 3028 3031 3033 3036 3038 3040 3042 3044 3045 3047 3049 3051 3053 3055 3057 3059 3061 3062 3063 3064 3066 3067 3069 3071 3072
2900 2902 2903 2905 2906 2907 2909 2910 2912 2914 2916 2919 2921 2924 2926 2929 2931 2933 2935 2937 2940 2943 2947 2950 2953 2956 2958 2960 2961 2962 2964 2967 2968 2969 2969 2970 2971 2972 2974 2976 2978 2980 2983 2985 2987 2990 2992 2995 2997 3000 3002 3004 3005 3007 3009 3011 3013 3016 3018 3021 3023 3026 3028 3031 3033 3036 3038 3040 3042 3044 3046 3047 3049 3051 3053 3055 3057 3058 3059 3060 3061 3062 3064 3065 3067 3069
2899 2900 2902 2903 2904 2906 2907 2909 2910 2912 2914 2917 2920 2922 2925 2927 2929 2932 2934 2936 2939 2942 2946 2949 2952 2953 2955 2958 2959 2960 2962 2965 2967 2968 2968 2969 2970 2971 2973 2974 2976 2978 2981 2983 2986 2988 2990 2993 2995 2997 3000 3002 3004 3005 3007 3009 3011 3014 3016 3018 3021 3023 3026 3028 3031 3033 3035 3037 3040 3042 3044 3046 3048 3049 3051 3052 3054 3056 3057 3058 3060 3061 3062 3063 3065 3067
2897 2898 2900 2901 2903 2904 2906 2907 2909 2911 2913 2915 2918 2920 2922 2924 2926 2928 2931 2934 2937 2940 2944 2947 2948 2950 2952 2956 2958 2959 2960 2963 2966 2968 2968 2968 2969 2970 2972 2973 2974 2976 2979 2982 2984 2986 2988 2990 2992 2995 2997 3000 3002 3004 3006 3007 3010 3012 3015 3017 3019 3022 3024 3026 3028 3030 3032 3035 3037 3040 3042 3044 3046 3047 3049 3051 3052 3053 3055 3057 3058 3060 3062 3063 3065 3067
2897 2897 2898 2900 2901 2903 2904 2906 2908 2910 2912 2914 2916 2918 2920 2922 2923 2926 2928 2931 2934 2937 2941 2943 2946 2948 2951 2953 2956 2957 2958 2961 2965 2967 2968 2968 2968 2969 2971 2972 2973 2974 2976 2979 2982 2984 2987 2989 2991 2993 2996 2998 3000 3002 3004 3006 3008 3010 3013 3015 3017 3020 3022 3024 3026 3028 3030 3033 3035 3038 3040 3042 3043 3045 3047 3049 3051 3052 3053 3055 3057 3058 3060 3062 3063 3065
2896 2897 2897 2899 2900 2902 2903 2905 2906 2908 2910 2912 2914 2916 2918 2920 2922 2924 2926 2928 2931 2935 2938 2941 2944 2946 2948 2950 2953 2955 2955 2958 2962 2965 2968 2968 2967 2968 2970 2971 2972 2972 2974 2977 2980 2983 2986 2989 2991 2992 2994 2996 2998 3000 3002 3004 3006 3009 3011 3014 3016 3018 3021 3023 3025 3027 3029 3032 3033 3036 3037 3039 3041 3043 3045 3047 3049 3050 3052 3053 3055 3057 3058 3060 3061 3063
2895 2896 2897 2898 2899 2901 2902 2903 2905 2907 2908 2910 2912 2914 2916 2918 2919 2921 2923 2927 2930 2933 2937 2939 2942 2944 2945 2947 2950 2952 2953 2955 2958 2962 2966 2967 2967 2968 2969 2971 2971 2971 2972 2974 2977 2981 2985 2988 2990 2991 2992 2994 2995 2997 2999 3002 3004 3007 3010 3012 3015 3017 3019 3022 3024 3026 3028 3029 3031 3033 3035 3037 3039 3041 3043 3045 3047 3048 3050 3052 3053 3055 3056 3058 3059 3061
2895 2896 2897 2897 2898 2900 2901 2902 2904 2905 2907 2909 2911 2912 2914 2916 2918 2920 2922 2926 2929 2931 2934 2937 2939 2941 2943 2945 2948 2950 2951 2953 2955 2959 2962 2965 2966 2967 2967 2969 2970 2970 2970 2970 2973 2977 2982 2985 2988 2989 2991 2992 2994 2995 2997 2999 3002 3005 3007 3009 3012 3014 3017 3019 3021 3023 3025 3027 3029 3031 3033 3035 3037 3039 3041 3043 3045 3047 3048 3050 3051 3052 3054 3056 3058 3059
2894 2895 2896 2897 2897 2898 2900 2901 2903 2904 2906 2907 2909 2911 2913 2915 2917 2919 2922 2925 2927 2929 2931 2935 2937 2939 2941 2943 2946 2947 2948 2949 2952 2955 2958 2962 2963 2965 2966 2967 2968 2969 2970 2969 2968 2970 2976 2981 2984 2987 2989 2991 2993 2994 2996 2998 3000 3002 3004 3006 3008 3011 3014 3016 3018 3021 3023 3025 3027 3029 3031 3033 3035 3037 3038 3040 3042 3044 3046 3047 3049 3051 3052 3054 3056 3057
2893 2894 2895 2896 2897 2897 2898 2900 2902 2903 2905 2907 2908 2910 2912 2914 2916 2918 2920 2922 2924 2927 2930 2933 2936 2937 2939 2941 2943 2945 2946 2946 2949 2952 2955 2958 2962 2964 2965 2966 2967 2969 2971 2972 2971 2970 2972 2975 2979 2983 2985 2988 2990 2992 2994 2996 2997 2999 3001 3003 3006 3008 3011 3013 3015 3017 3020 3022 3024 3026 3028 3030 3032 3034 3036 3038 3040 3042 3043 3045 3047 3049 3050 3052 3054 3055
2893 2893 2894 2895 2896 2897 2898 2899 2901 2902 2904 2906 2907 2909 2911 2912 2914 2916 2918 2920 2923 2926 2928 2931 2933 2935 2937 2939 2942 2945 2946 2946 2947 2949 2952 2955 2959 2962 2964 2965 2966 2967 2970 2972 2974 2975 2975 2976 2977 2979 2981 2983 2986 2988 2991 2993 2995 2997 2998 3001 3003 3006 3008 3010 3013 3015 3017 3019 3021 3024 3026 3028 3030 3032 3033 3036 3037 3039 3041 3043 3045 3047 3048 3050 3051 3052
2892 2893 2894 2895 2895 2896 2897 2898 2900 2902 2903 2905 2907 2908 2909 2911 2913 2915 2917 2919 2921 2924 2927 2928 2930 2932 2936 2938 2941 2944 2946 2946 2946 2947 2949 2952 2955 2958 2960 2962 2964 2966 2967 2970 2972 2974 2977 2978 2979 2981 2982 2982 2982 2984 2987 2990 2992 2994 2997 2999 3002 3004 3006 3008 3010 3012 3015 3017 3019 3021 3023 3025 3027 3028 3031 3033 3035 3037 3039 3041 3042 3044 3046 3047 3048 3050
2892 2893 2893 2894 2895 2896 2897 2898 2899 2901 2902 2904 2905 2907 2908 2909 2911 2913 2915 2917 2920 2922 2925 2927 2929 2931 2934 2937 2940 2942 2945 2945 2945 2945 2947 2950 2952 2955 2957 2960 2962 2964 2966 2968 2970 2972 2975 2977 2979 2981 2982 2984 2983 2984 2985 2988 2990 2992 2995 2998 3001 3003 3005 3007 3008 3010 3012 3015 3017 3019 3021 3023 3024 3026 3028 3030 3032 3034 3036 3038 3040 3042 3044 3045 3047 3048
2892 2892 2893 2894 2895 2895 2896 2897 2898 2900 2902 2903 2904 2905 2907 2908 2910 2912 2914 2916 2918 2921 2923 2926 2928 2930 2933 2936 2938 2941 2943 2945 2945 2945 2945 2947 2950 2952 2955 2957 2960 2962 2965 2967 2969 2971 2973 2976 2979 2981 2983 2984 2985 2985 2987 2989 2990 2992 2995 2997 3000 3002 3004 3006 3008 3010 3011 3013 3016 3017 3019 3021 3023 3025 3026 3028 3030 3032 3034 3037 3038 3040 3042 3044 3046 3047
2892 2892 2893 2894 2894 2895 2896 2897 2898 2899 2901 2902 2903 2905 2906 2907 2909 2911 2912 2915 2917 2920 2922 2924 2927 2929 2931 2934 2937 2940 2942 2945 2946 2945 2945 2946 2948 2950 2953 2956 2959 2961 2963 2965 2967 2969 2972 2974 2977 2980 2982 2984 2985 2986 2988 2990 2992 2993 2994 2996 2998 3000 3002 3004 3007 3008 3010 3012 3014 3016 3018 3020 3022 3023 3025 3027 3029 3031 3033 3035 3037 3039 3041 3043 3045 3047
2892 2892 2892 2893 2894 2895 2896 2897 2898 2899 2900 2902 2903 2904 2905 2906 2908 2909 2911 2913 2916 2918 2921 2923 2926 2928 2930 2933 2936 2939 2941 2944 2946 2946 2945 2945 2947 2949 2952 2955 2958 2961 2962 2964 2967 2968 2971 2973 2975 2978 2980 2982 2984 2986 2988 2989 2991 2992 2993 2995 2997 2999 3001 3002 3005 3007 3009 3011 3013 3015 3017 3019 3021 3023 3025 3027 3029 3031 3033 3035 3037 3039 3041 3042 3044 3046
2892 2892 2892 2893 2894 2895 2896 2897 2898 2899 2900 2901 2902 2903 2904 2905 2907 2908 2910 2912 2914 2917 2919 2922 2925 2927 2929 2932 2935 2938 2940 2942 2944 2946 2946 2946 2947 2949 2952 2954 2957 2959 2962 2964 2967 2969 2971 2972 2974 2976 2978 2981 2983 2985 2987 2988 2989 2990 2992 2993 2996 2998 3000 3002 3003 3006 3008 3010 3012 3014 3016 3018 3021 3023 3025 3027 3029 3031 3033 3035 3037 3038 3040 3042 3043 3045
2892 2892 2892 2893 2894 2895 2896 2897 2898 2899 2900 2901 2902 2903 2904 2905 2906 2907 2909 2911 2913 2916 2918 2921 2923 2926 2928 2931 2934 2937 2939 2941 2943 2945 2946 2947 2948 2949 2952 2954 2956 2958 2960 2963 2965 2968 2970 2972 2974 2976 2978 2980 2982 2984 2985 2986 2987 2988 2990 2992 2994 2997 2999 3001 3003 3005 3007 3010 3012 3014 3016 3018 3020 3022 3024 3026 3028 3030 3032 3034 3036 3038 3039 3041 3043 3044
2891 2892 2892 2892 2893 2894 2896 2897 2898 2899 2900 2901 2902 2903 2903 2904 2905 2907 2908 2911 2913 2915 2917 2920 2923 2925 2928 2931 2933 2936 2938 2940 2942 2944 2946 2947 2948 2949 2951 2953 2955 2957 2959 2961 2963 2966 2968 2970 2973 2976 2978 2979 2981 2983 2984 2986 2987 2988 2989 2991 2993 2995 2997 3000 3003 3005 3007 3009 3011 3013 3015 3017 3019 3021 3023 3025 3027 3029 3032 3033 3035 3037 3039 3040 3042 3044
2891 2892 2892 2893 2893 2894 2896 2897 2898 2899 2900 2901 2902 2902 2903 2904 2905 2906 2907 2910 2912 2914 2917 2919 2922 2924 2927 2930 2933 2935 2937 2939 2941 2942 2944 2946 2947 2948 2950 2952 2954 2956 2958 2960 2962 2965 2967 2970 2972 2974 2976 2978 2980 2982 2984 2985 2986 2987 2989 2991 2992 2995 2997 3000 3002 3004 3006 3008 3010 3012 3014 3017 3018 3020 3022 3024 3026 3028 3031 3032 3034 3036 3038 3039 3041 3043
2891 2892 2892 2893 2894 2895 2896 2897 2898 2899 2900 2901 2901 2902 2903 2904 2905 2906 2907 2909 2911 2913 2916 2918 2921 2923 2925 2928 2931 2933 2935 2937 2939 2941 2943 2945 2947 2948 2949 2951 2952 2954 2957 2959 2962 2964 2966 2968 2971 2973 2975 2977 2978 2981 2982 2984 2985 2987 2988 2990 2992 2994 2996 2998 3000 3002 3005 3007 3009 3011 3013 3015 3017 3019 3022 3023 3026 3027 3030 3032 3033 3035 3037 3038 3040 3042
2891 2892 2892 2893 2894 2895 2896 2897 2898 2899 2900 2900 2901 2902 2903 2904 2905 2907 2908 2909 2911 2913 2916 2918 2920 2922 2925 2928 2929 2931 2933 2935 2937 2939 2942 2944 2946 2947 2949 2950 2952 2954 2956 2958 2960 2962 2965 2967 2969 2971 2973 2975 2977 2979 2981 2983 2985 2986 2988 2990 2992 2994 2995 2997 2999 3002 3004 3006 3008 3010 3012 3014 3017 3019 3021 3023 3025 3027 3029 3031 3032 3034 3036 3037 3039 3040
2892 2892 2893 2894 2895 2895 2896 2897 2898 2899 2900 2900 2901 2902 2903 2904 2905 2907 2908 2909 2911 2912 2915 2917 2920 2922 2925 2927 2928 2930 2932 2934 2936 2938 2941 2943 2946 2948 2949 2950 2952 2953 2956 2958 2960 2962 2964 2966 2968 2970 2972 2974 2976 2978 2980 2982 2984 2986 2987 2989 2991 2993 2996 2998 3000 3002 3004 3005 3007 3009 3012 3014 3016 3018 3020 3022 3024 3026 3028 3030 3031 3033 3035 3036 3038 3039
2892 2892 2893 2894 2895 2896 2896 2897 2898 2899 2900 2901 2901 2902 2903 2904 2905 2906 2908 2910 2911 2913 2915 2917 2919 2921 2923 2925 2927 2929 2931 2933 2935 2938 2940 2942 2945 2947 2949 2950 2952 2953 2955 2957 2959 2962 2964 2966 2967 2969 2971 2973 2975 2977 2979 2981 2983 2985 2987 2989 2991 2993 2996 2998 3001 3002 3003 3005 3007 3009 3011 3013 3015 3017 3019 3021 3023 3025 3027 3028 3030 3032 3033 3035 3037 3038
2892 2892 2893 2894 2895 2896 2897 2897 2898 2899 2900 2901 2902 2902 2903 2904 2905 2906 2907 2909 2911 2913 2915 2917 2918 2920 2922 2924 2925 2927 2929 2931 2933 2936 2938 2941 2943 2945 2947 2949 2952 2953 2954 2956 2958 2960 2963 2966 2968 2970 2971 2973 2975 2977 2978 2981 2983 2985 2987 2989 2991 2993 2995 2997 2999 3002 3003 3006 3007 3009 3011 3013 3015 3017 3018 3020 3022 3024 3026 3027 3029 3031 3032 3034 3035 3037
2892 2893 2894 2895 2896 2896 2897 2898 2899 2900 2900 2901 2902 2902 2903 2904 2905 2906 2907 2909 2911 2913 2915 2917 2918 2920 2922 2923 2924 2926 2927 2928 2930 2932 2935 2938 2941 2943 2946 2948 2950 2952 2953 2954 2956 2958 2961 2963 2966 2969 2971 2973 2975 2977 2978 2980 2982 2985 2987 2989 2991 2992 2995 2997 2999 3001 3003 3005 3007 3009 3011 3013 3014 3016 3018 3020 3022 3023 3025 3026 3028 3029 3031 3032 3034 3035
2892 2893 2894 2895 2896 2897 2897 2898 2899 2900 2901 2902 2902 2903 2903 2904 2906 2906 2907 2908 2910 2912 2915 2917 2918 2920 2922 2923 2924 2926 2927 2928 2929 2931 2933 2936 2938 2942 2945 2947 2949 2950 2952 2953 2955 2957 2959 2962 2964 2967 2969 2972 2974 2976 2978 2980 2982 2984 2987 2989 2991 2993 2995 2997 2998 3001 3002 3004 3006 3008 3010 3012 3014 3016 3017 3019 3021 3022 3023 3025 3027 3028 3030 3031 3032 3033
2892 2893 2894 2895 2896 2897 2898 2898 2899 2900 2901 2902 2902 2903 2904 2905 2906 2907 2907 2909 2910 2912 2914 2916 2918 2920 2922 2923 2925 2927 2928 2929 2930 2932 2933 2935 2937 2940 2943 2946 2947 2948 2950 2952 2954 2957 2959 2961 2964 2966 2968 2971 2973 2976 2978 2980 2982 2984 2987 2989 2991 2992 2994 2996 2998 3000 3002 3003 3005 3007 3009 3011 3013 3015 3016 3018 3019 3021 3022 3024 3026 3027 3028 3029 3031 3032
2892 2893 2894 2895 2896 2897 2898 2899 2900 2901 2902 2902 2903 2903 2904 2905 2906 2907 2908 2909 2910 2912 2914 2916 2918 2920 2922 2924 2925 2927 2928 2930 2932 2933 2935 2936 2938 2940 2942 2944 2946 2947 2949 2951 2954 2956 2958 2961 2963 2966 2968 2970 2972 2975 2978 2980 2982 2984 2986 2988 2990 2992 2994 2996 2997 2999 3001 3003 3005 3007 3008 3010 3012 3013 3015 3016 3017 3019 3021 3022 3024 3025 3026 3027 3028 3030